Hauptseite
METAR-TAF:

METAR-TAF

Flughäfen :

Dübendorf, Schweiz

Militärflugplatz Dübendorf

Breite: 47-23-55N, Länge: 8-38-53E, Höhe: 448 m

Beobachtung

Neuester Wetterbericht von vor 36 Minuten, um 07:50 UTC
Windstille
Temperatur 4°C
Luftfeuchtigkeit 87%
Luftdruck 1024 hPa
Sichtweite: 2300 m
Leicht bewölkt in der Höhe von 800 ft
Durchbrochene Bewölkung in der Höhe von 1100 ft

METAR: LSMD 180750Z AUTO 00000KT 2300NDV FEW008 BKN011 04/02 Q1024 RMK

Zeit: 09:26 (08:26 UTC)


TAF: fehlend

Wetterbeobachtungen und Prognosen von mehr als 4000 Flughäfen (METAR und TAF Bericht).

Die verfügbaren Stationen werden durch gelbe und rote Markierungen auf der Karte dargestellt.

Führen Sie die Maus auf sie, um den Namen der Station zu sehen.

Darauf klicken, um die Beobachtung von Wetterbeobachtungen und Prognosen zu sehen.

Um die Karte zu ändern : klicken Sie auf den grünen Tasten mit einem schwarzen Kreuz Zum Vergrößern, auf den grünen Button mit einem Gedankenstrich zu verkleinern, oder auf die grünen Pfeile für benachbarte Karten.


METAR-TAF: